Tracking 27420 objects as of 28-May-2023
HD Live streaming from Space Station
objects crossing your sky now

STARLINK-5859

Track STARLINK-5859 now!
10-day predictions
STARLINK-5859 is classified as:


NORAD ID: 55915
Int'l Code: 2023-037B
Perigee: 574.1 km
Apogee: 578.3 km
Inclination: 70.0 °
Period: 96.0 minutes
Semi major axis: 6947 km
RCS: Unknown
Launch date: March 17, 2023
Source: United States (US)
Launch site: AIR FORCE WESTERN TEST RANGE (AFWTR)
Your satellite tracking list
Your tracking list is empty




NASA's NSSDC Master Catalog

Two Line Element Set (TLE):
1 55915U 23037B   23147.99057689 -.00000260  00000-0 -13610-4 0  9995
2 55915  69.9996 347.9895 0003031 269.3925  90.6888 14.99304681 11885
Source of the keplerian elements: AFSPC